Location: Cruquius
(52.3348°N, 4.6319°E)
Time: 23:03:48
(UTC+00:00)

USA 215 - Pass Details

Date: 12 May 2021
Orbit: 1100 x 1107 km, 123.0° (Epoch: 22 June)

Event Time Altitude Azimuth Distance (km) Brightness Sun altitude
Rises 20:45:38 0° 80° (E) 3,920 5.9 -10.0°
Reaches altitude 10° 20:48:08 10° 77° (ENE) 2,962 5.3 -10.3°
Maximum altitude 20:54:32 60° 360° (N) 1,251 3.8 -10.9°
Drops below altitude 10° 21:00:56 10° 282° (WNW) 2,965 6.3 -11.5°
Sets 21:03:27 0° 279° (W) 3,924 6.9 -11.8°
